Weather in Novogeorgiyevka

Russia / Primorsky Krai     44°01′46″N   131°24′12″E
temp.,
°C
wind,
m/s
gust,
m/s
humid.,
%
clouds,
%
prec.,
mm/h
press.,
hPa
HPBL,
m
3 march, wed
wed301:00−16wnw11920 0.0 103020
04:00−17wnw00920 0.0 103020
07:00−18ese11922 0.0 103020
10:00−14se118519 0.0 1028145
13:00−4s3979100 0.0 1025508
16:000s71277100 0.0 10211146
19:00−2s41184100 0.0 1021262
22:00−3s3685100 0.0 1021158
4 march, thu
thu401:00−4s248671 0.0 102074
04:00−5s238546 0.0 101943
07:00−4s348167 0.0 101840
10:000s358183 0.0 1018149
13:00+4se2398100 0.0 101785
16:00+5sse338778 0.0 101497
19:00+1sse478049 0.0 1014116
22:00−1s348239 0.0 101548
5 march, fri
fri501:00+1wsw34770 0.0 101675
04:00−1sw118613 0.0 101821
07:00−2ssw118433 0.0 101921
10:00−1nnw249067 0.1 1021216
13:00−2nnw71270100 0.4 1022775
16:00−3nw5861100 0.7 10251206
19:00−6nnw4862100 0.2 10281168
22:00−12nw8125650 0.2 1033982
6 march, sat
sat601:00−14nw59590 0.0 10361015
04:00−15nw38620 0.0 1038955
07:00−16nw24660 0.0 1039473
10:00−14wnw35530 0.0 1040678
13:00−10nw34430 0.0 10391150
16:00−7n13390 0.0 10361166
19:00−10ese35710 0.0 1036205
22:00−11ese117917 0.0 103726
7 march, sun
sun701:00−12se01800 0.0 103620
04:00−12ese01800 0.0 103520
07:00−13se01810 0.0 103420
10:00−10s11660 0.0 1033172
13:00−6sse12520 0.0 1030357
16:00−3se23550 0.0 1027383
19:00−5ese22800 0.0 102652
22:00−6nnw11830 0.0 102821